NSZ4505 ESSA-EDDB

Flight info

Callsign NSZ4505
Flight time 1h 24m
Altitude 34000
Route PETEV N872 ELPAX DCT BIKRU/N0420F330 DCT RODEP T280 KETAP KETAP1R
Aircraft B738/M-SDE2E3GHIJ1LRWXY/LB1

Departure

Time 2026-05-07 18:28
Airport Stockholm-Arlanda Airport (ESSA)

Arrival

Time 2026-05-07 19:52
Airport Berlin Brandenburg Airport (EDDB)
Time Latitude Longitude Altitude Speed Heading
2026-05-07 17:56 59.65147 17.92699 111 ft 0 kts 190°
2026-05-07 18:17 59.65150 17.92700 111 ft 3 kts 190°
2026-05-07 18:18 59.65176 17.92710 111 ft 4 kts 191°
2026-05-07 18:18 59.65203 17.92719 111 ft 4 kts 191°
2026-05-07 18:18 59.65229 17.92729 110 ft 4 kts 191°
2026-05-07 18:18 59.65252 17.92738 108 ft 1 kts 191°
2026-05-07 18:19 59.65253 17.92738 108 ft 0 kts 191°
2026-05-07 18:22 59.65250 17.92735 108 ft 2 kts 202°
2026-05-07 18:22 59.65246 17.92669 111 ft 9 kts 274°
2026-05-07 18:23 59.65270 17.92532 111 ft 11 kts 290°
2026-05-07 18:23 59.65297 17.92383 109 ft 13 kts 288°
2026-05-07 18:23 59.65363 17.92276 104 ft 15 kts
2026-05-07 18:23 59.65463 17.92312 104 ft 14 kts 11°
2026-05-07 18:24 59.65559 17.92348 104 ft 14 kts 11°
2026-05-07 18:24 59.65649 17.92381 103 ft 13 kts 11°
2026-05-07 18:24 59.65737 17.92413 104 ft 13 kts
2026-05-07 18:24 59.65823 17.92441 105 ft 12 kts
2026-05-07 18:25 59.65902 17.92419 107 ft 12 kts 308°
2026-05-07 18:25 59.65915 17.92317 110 ft 0 kts 281°
2026-05-07 18:26 59.65924 17.92226 112 ft 9 kts 281°
2026-05-07 18:26 59.65909 17.92117 112 ft 9 kts 206°
2026-05-07 18:26 59.65847 17.92090 109 ft 10 kts 191°
2026-05-07 18:27 59.65787 17.92068 110 ft 19 kts 191°
2026-05-07 18:27 59.65421 17.91937 105 ft 91 kts 190°
2026-05-07 18:27 59.64571 17.91629 110 ft 152 kts 189°
2026-05-07 18:27 59.63395 17.91190 467 ft 174 kts 189°
2026-05-07 18:28 59.62259 17.90735 1540 ft 164 kts 196°
2026-05-07 18:28 59.61280 17.89425 2152 ft 188 kts 231°
2026-05-07 18:28 59.60512 17.87063 2455 ft 217 kts 237°
2026-05-07 18:28 59.59678 17.84491 3078 ft 223 kts 236°
2026-05-07 18:29 59.58818 17.81955 3769 ft 227 kts 237°
2026-05-07 18:29 59.58014 17.79172 4315 ft 238 kts 243°
2026-05-07 18:29 59.57246 17.76185 4935 ft 243 kts 244°
2026-05-07 18:29 59.56443 17.73249 5003 ft 246 kts 235°
2026-05-07 18:30 59.55332 17.70689 5025 ft 246 kts 227°
2026-05-07 18:30 59.54131 17.68278 5032 ft 248 kts 226°
2026-05-07 18:30 59.52915 17.65884 5509 ft 252 kts 226°
2026-05-07 18:30 59.51637 17.63352 6089 ft 267 kts 227°
2026-05-07 18:31 59.50320 17.60728 6927 ft 270 kts 227°
2026-05-07 18:31 59.48999 17.58081 7807 ft 271 kts 228°
2026-05-07 18:31 59.47677 17.55421 8700 ft 273 kts 229°
2026-05-07 18:31 59.46344 17.52729 9596 ft 275 kts 229°
2026-05-07 18:32 59.45009 17.50029 10439 ft 277 kts 229°
2026-05-07 18:32 59.43612 17.47195 10721 ft 301 kts 229°
2026-05-07 18:32 59.42105 17.44132 10998 ft 321 kts 229°
2026-05-07 18:32 59.40523 17.40932 11619 ft 329 kts 229°
2026-05-07 18:33 59.38939 17.37737 12403 ft 332 kts 229°
2026-05-07 18:33 59.37300 17.34436 13257 ft 334 kts 229°
2026-05-07 18:33 59.35686 17.31188 14063 ft 338 kts 229°
2026-05-07 18:33 59.34030 17.27856 14840 ft 341 kts 229°
2026-05-07 18:34 59.32373 17.24529 15664 ft 343 kts 229°
2026-05-07 18:34 59.30702 17.21175 16490 ft 345 kts 230°
2026-05-07 18:34 59.29015 17.17794 17277 ft 348 kts 230°
2026-05-07 18:34 59.27312 17.14385 18060 ft 351 kts 230°
2026-05-07 18:35 59.25596 17.10955 18783 ft 355 kts 230°
2026-05-07 18:35 59.23863 17.07495 19442 ft 358 kts 230°
2026-05-07 18:35 59.22111 17.04007 20092 ft 361 kts 230°
2026-05-07 18:35 59.20328 17.00510 20746 ft 365 kts 228°
2026-05-07 18:36 59.18442 16.97239 21380 ft 370 kts 225°
2026-05-07 18:36 59.16448 16.94014 22004 ft 374 kts 224°
2026-05-07 18:36 59.14419 16.90795 22615 ft 377 kts 224°
2026-05-07 18:36 59.12372 16.87542 23224 ft 381 kts 224°
2026-05-07 18:37 59.10309 16.84245 23801 ft 384 kts 224°
2026-05-07 18:37 59.08268 16.80965 24274 ft 387 kts 224°
2026-05-07 18:37 59.06186 16.77608 24761 ft 390 kts 224°
2026-05-07 18:37 59.04094 16.74233 25229 ft 393 kts 224°
2026-05-07 18:38 59.01988 16.70836 25699 ft 395 kts 224°
2026-05-07 18:38 58.99861 16.67411 26147 ft 398 kts 224°
2026-05-07 18:38 58.97714 16.63958 26602 ft 401 kts 224°
2026-05-07 18:38 58.95555 16.60490 27034 ft 404 kts 224°
2026-05-07 18:39 58.93381 16.57006 27457 ft 407 kts 224°
2026-05-07 18:39 58.91184 16.53493 27870 ft 410 kts 224°
2026-05-07 18:39 58.88969 16.49964 28288 ft 413 kts 224°
2026-05-07 18:39 58.86739 16.46439 28838 ft 412 kts 224°
2026-05-07 18:40 58.84525 16.42953 29469 ft 409 kts 224°
2026-05-07 18:40 58.82322 16.39486 30052 ft 408 kts 224°
2026-05-07 18:40 58.80110 16.36005 30508 ft 408 kts 224°
2026-05-07 18:40 58.77937 16.32587 30880 ft 409 kts 224°
2026-05-07 18:41 58.75730 16.29121 31288 ft 409 kts 224°
2026-05-07 18:41 58.73516 16.25654 31720 ft 409 kts 224°
2026-05-07 18:41 58.71310 16.22200 32160 ft 408 kts 224°
2026-05-07 18:41 58.69106 16.18748 32523 ft 409 kts 224°
2026-05-07 18:42 58.66891 16.15277 32914 ft 409 kts 224°
2026-05-07 18:42 58.64681 16.11820 33309 ft 409 kts 224°
2026-05-07 18:42 58.62471 16.08369 33711 ft 409 kts 224°
2026-05-07 18:42 58.60260 16.04923 34094 ft 409 kts 224°
2026-05-07 18:43 58.58057 16.01491 34110 ft 415 kts 224°
2026-05-07 18:43 58.53550 15.94495 34123 ft 413 kts 224°
2026-05-07 18:44 58.49114 15.87639 34130 ft 408 kts 224°
2026-05-07 18:44 58.44702 15.80828 34133 ft 410 kts 224°
2026-05-07 18:45 58.40250 15.73985 34134 ft 412 kts 224°
2026-05-07 18:45 58.35768 15.67107 34129 ft 414 kts 224°
2026-05-07 18:46 58.31280 15.60226 34102 ft 415 kts 224°
2026-05-07 18:46 58.26800 15.53379 34107 ft 415 kts 223°
2026-05-07 18:47 58.22285 15.46503 34106 ft 416 kts 223°
2026-05-07 18:47 58.17763 15.39637 34114 ft 416 kts 223°
2026-05-07 18:48 58.13251 15.32810 34126 ft 415 kts 223°
2026-05-07 18:48 58.09176 15.27894 34127 ft 422 kts 208°
2026-05-07 18:48 58.05447 15.25515 34128 ft 429 kts 196°
2026-05-07 18:49 58.02496 15.24368 34134 ft 429 kts 195°
2026-05-07 18:49 57.96648 15.22283 34131 ft 429 kts 194°
2026-05-07 18:50 57.90757 15.20171 34131 ft 430 kts 194°
2026-05-07 18:50 57.84909 15.18016 34131 ft 430 kts 195°
2026-05-07 18:51 57.79030 15.15829 34129 ft 430 kts 194°
2026-05-07 18:51 57.73162 15.13644 34138 ft 430 kts 194°
2026-05-07 18:52 57.67309 15.11472 34126 ft 430 kts 194°
2026-05-07 18:52 57.61427 15.09297 34132 ft 430 kts 194°
2026-05-07 18:53 57.55543 15.07130 34126 ft 430 kts 194°
2026-05-07 18:53 57.49694 15.04982 34124 ft 431 kts 194°
2026-05-07 18:54 57.43787 15.02820 34125 ft 430 kts 193°
2026-05-07 18:54 57.37900 15.00673 34122 ft 430 kts 193°
2026-05-07 18:55 57.32023 14.98536 34125 ft 430 kts 193°
2026-05-07 18:55 57.26143 14.96406 34118 ft 430 kts 193°
2026-05-07 18:56 57.20265 14.94282 34117 ft 430 kts 193°
2026-05-07 18:56 57.14346 14.92151 34114 ft 430 kts 193°
2026-05-07 18:57 57.08467 14.90041 34111 ft 429 kts 193°
2026-05-07 18:57 57.02634 14.87955 34105 ft 429 kts 192°
2026-05-07 18:58 56.96751 14.85857 34128 ft 429 kts 192°
2026-05-07 18:58 56.90884 14.83771 34128 ft 429 kts 192°
2026-05-07 18:59 56.85001 14.81687 34132 ft 429 kts 192°
2026-05-07 18:59 56.79164 14.79625 34133 ft 430 kts 192°
2026-05-07 19:00 56.74237 14.77890 34133 ft 430 kts 192°
2026-05-07 19:00 56.67406 14.75492 34139 ft 430 kts 192°
2026-05-07 19:01 56.62513 14.73780 34135 ft 430 kts 192°
2026-05-07 19:01 56.55662 14.71391 34144 ft 430 kts 191°
2026-05-07 19:02 56.50755 14.69684 34139 ft 430 kts 191°
2026-05-07 19:02 56.44858 14.67640 34146 ft 430 kts 191°
2026-05-07 19:03 56.39005 14.65617 34154 ft 430 kts 191°
2026-05-07 19:03 56.33108 14.63586 34146 ft 431 kts 191°
2026-05-07 19:04 56.27205 14.61558 34144 ft 431 kts 191°
2026-05-07 19:04 56.21298 14.59536 34151 ft 430 kts 191°
2026-05-07 19:05 56.15418 14.57529 34147 ft 430 kts 191°
2026-05-07 19:05 56.09524 14.55524 34149 ft 430 kts 191°
2026-05-07 19:06 56.03673 14.53539 34140 ft 429 kts 190°
2026-05-07 19:06 55.94852 14.50559 34142 ft 429 kts 190°
2026-05-07 19:07 55.88978 14.48582 34139 ft 429 kts 190°
2026-05-07 19:07 55.83102 14.46611 34140 ft 429 kts 190°
2026-05-07 19:08 55.77218 14.44642 34144 ft 429 kts 190°
2026-05-07 19:08 55.71379 14.42695 34148 ft 429 kts 190°
2026-05-07 19:09 55.65489 14.40737 34148 ft 429 kts 190°
2026-05-07 19:09 55.59599 14.38785 34148 ft 430 kts 190°
2026-05-07 19:10 55.53760 14.36856 34150 ft 430 kts 190°
2026-05-07 19:10 55.47869 14.34915 34155 ft 430 kts 190°
2026-05-07 19:11 55.42027 14.32997 34154 ft 430 kts 190°
2026-05-07 19:11 55.36136 14.31068 34158 ft 429 kts 190°
2026-05-07 19:12 55.30250 14.29146 34156 ft 429 kts 190°
2026-05-07 19:12 55.24386 14.27237 34154 ft 428 kts 190°
2026-05-07 19:13 55.18530 14.25337 34157 ft 427 kts 190°
2026-05-07 19:13 55.12684 14.23445 34156 ft 426 kts 190°
2026-05-07 19:14 55.06893 14.21578 34155 ft 425 kts 190°
2026-05-07 19:14 55.01769 14.19233 34163 ft 423 kts 200°
2026-05-07 19:15 54.96255 14.15587 34150 ft 423 kts 201°
2026-05-07 19:15 54.90760 14.11906 34156 ft 422 kts 201°
2026-05-07 19:16 54.85270 14.08313 34155 ft 422 kts 200°
2026-05-07 19:16 54.79758 14.04760 34150 ft 421 kts 200°
2026-05-07 19:17 54.74256 14.01236 34152 ft 421 kts 200°
2026-05-07 19:17 54.68791 13.97748 34152 ft 421 kts 200°
2026-05-07 19:18 54.63290 13.94245 34149 ft 421 kts 200°
2026-05-07 19:18 54.57778 13.90745 34081 ft 420 kts 200°
2026-05-07 19:19 54.55008 13.88990 33401 ft 423 kts 200°
2026-05-07 19:19 54.52259 13.87251 33001 ft 418 kts 200°
2026-05-07 19:19 54.49536 13.85531 32595 ft 414 kts 200°
2026-05-07 19:19 54.46846 13.83834 32192 ft 409 kts 200°
2026-05-07 19:20 54.44177 13.82152 31815 ft 405 kts 200°
2026-05-07 19:20 54.41542 13.80494 31418 ft 401 kts 200°
2026-05-07 19:20 54.38968 13.78876 31049 ft 397 kts 200°
2026-05-07 19:20 54.36382 13.77254 30671 ft 393 kts 200°
2026-05-07 19:21 54.33826 13.75652 30304 ft 390 kts 200°
2026-05-07 19:21 54.31291 13.74065 29890 ft 386 kts 200°
2026-05-07 19:21 54.28778 13.72495 29516 ft 380 kts 200°
2026-05-07 19:21 54.26303 13.70950 29125 ft 376 kts 200°
2026-05-07 19:22 54.23855 13.69424 28745 ft 371 kts 200°
2026-05-07 19:22 54.21442 13.67921 28372 ft 367 kts 200°
2026-05-07 19:22 54.19052 13.66435 28007 ft 363 kts 200°
2026-05-07 19:22 54.16681 13.64962 27641 ft 360 kts 200°
2026-05-07 19:23 54.14344 13.63639 27173 ft 360 kts 195°
2026-05-07 19:23 54.11908 13.62649 26768 ft 358 kts 193°
2026-05-07 19:23 54.09472 13.61800 26380 ft 356 kts 192°
2026-05-07 19:23 54.07047 13.60979 26015 ft 353 kts 192°
2026-05-07 19:24 54.04643 13.60151 25654 ft 351 kts 192°
2026-05-07 19:24 54.02258 13.59309 25298 ft 349 kts 193°
2026-05-07 19:24 53.99887 13.58456 24941 ft 347 kts 193°
2026-05-07 19:24 53.97530 13.57600 24605 ft 345 kts 193°
2026-05-07 19:25 53.95215 13.56753 24264 ft 343 kts 193°
2026-05-07 19:25 53.92879 13.55897 23917 ft 342 kts 193°
2026-05-07 19:25 53.90556 13.55046 23541 ft 341 kts 193°
2026-05-07 19:25 53.88245 13.54199 23145 ft 339 kts 193°
2026-05-07 19:26 53.85941 13.53357 22787 ft 337 kts 193°
2026-05-07 19:26 53.83657 13.52522 22442 ft 334 kts 193°
2026-05-07 19:26 53.81384 13.51691 22082 ft 332 kts 193°
2026-05-07 19:26 53.79132 13.50870 21741 ft 330 kts 193°
2026-05-07 19:27 53.76915 13.50063 21401 ft 328 kts 193°
2026-05-07 19:27 53.74687 13.49253 21070 ft 326 kts 193°
2026-05-07 19:27 53.72470 13.48444 20728 ft 324 kts 193°
2026-05-07 19:27 53.70270 13.47639 20394 ft 323 kts 193°
2026-05-07 19:28 53.68076 13.46837 20058 ft 321 kts 193°
2026-05-07 19:28 53.65894 13.46039 19724 ft 320 kts 193°
2026-05-07 19:28 53.63720 13.45245 19394 ft 319 kts 192°
2026-05-07 19:28 53.61551 13.44454 19058 ft 318 kts 192°
2026-05-07 19:29 53.59383 13.43664 18722 ft 317 kts 192°
2026-05-07 19:29 53.57218 13.42877 18387 ft 317 kts 192°
2026-05-07 19:29 53.55087 13.42102 18001 ft 316 kts 192°
2026-05-07 19:29 53.52942 13.41324 17643 ft 315 kts 192°
2026-05-07 19:30 53.51259 13.40713 17369 ft 314 kts 192°
2026-05-07 19:30 53.49928 13.40231 17158 ft 313 kts 192°
2026-05-07 19:30 53.47799 13.39460 16818 ft 311 kts 192°
2026-05-07 19:30 53.45684 13.38695 16483 ft 309 kts 192°
2026-05-07 19:31 53.43589 13.37937 16158 ft 307 kts 192°
2026-05-07 19:31 53.41525 13.37192 15833 ft 306 kts 192°
2026-05-07 19:31 53.39448 13.36443 15505 ft 304 kts 193°
2026-05-07 19:31 53.37379 13.35697 15184 ft 303 kts 192°
2026-05-07 19:32 53.35316 13.34954 14860 ft 302 kts 192°
2026-05-07 19:32 53.33262 13.34215 14532 ft 300 kts 193°
2026-05-07 19:32 53.31238 13.33488 14221 ft 299 kts 193°
2026-05-07 19:32 53.29202 13.32756 13894 ft 298 kts 193°
2026-05-07 19:33 53.27172 13.32028 13534 ft 297 kts 193°
2026-05-07 19:33 53.25157 13.31306 13192 ft 296 kts 193°
2026-05-07 19:33 53.23153 13.30589 12862 ft 294 kts 192°
2026-05-07 19:33 53.21157 13.29876 12540 ft 292 kts 193°
2026-05-07 19:34 53.19166 13.29166 12226 ft 291 kts 192°
2026-05-07 19:34 53.17192 13.28461 11904 ft 289 kts 192°
2026-05-07 19:34 53.15227 13.27761 11590 ft 288 kts 192°
2026-05-07 19:34 53.13272 13.27064 11273 ft 287 kts 192°
2026-05-07 19:35 53.11323 13.26370 10965 ft 286 kts 192°
2026-05-07 19:35 53.09405 13.25688 10660 ft 285 kts 192°
2026-05-07 19:35 53.07445 13.24991 10354 ft 284 kts 192°
2026-05-07 19:35 53.05524 13.24310 10223 ft 281 kts 192°
2026-05-07 19:36 53.03636 13.23641 10144 ft 282 kts 192°
2026-05-07 19:36 53.01705 13.22957 10117 ft 282 kts 192°
2026-05-07 19:36 52.99811 13.22288 10099 ft 275 kts 192°
2026-05-07 19:36 52.97964 13.21635 10103 ft 269 kts 192°
2026-05-07 19:37 52.96111 13.20981 10124 ft 277 kts 192°
2026-05-07 19:37 52.94830 13.20528 10116 ft 281 kts 192°
2026-05-07 19:37 52.92329 13.19646 10100 ft 274 kts 192°
2026-05-07 19:37 52.91072 13.19204 10101 ft 271 kts 192°
2026-05-07 19:38 52.89235 13.18557 10099 ft 268 kts 192°
2026-05-07 19:38 52.87415 13.17916 10108 ft 268 kts 192°
2026-05-07 19:38 52.85606 13.17281 10121 ft 271 kts 192°
2026-05-07 19:38 52.83693 13.16608 10132 ft 288 kts 192°
2026-05-07 19:39 52.81772 13.15934 10122 ft 291 kts 192°
2026-05-07 19:39 52.79757 13.15228 10108 ft 291 kts 192°
2026-05-07 19:39 52.77750 13.14525 10099 ft 291 kts 192°
2026-05-07 19:39 52.75801 13.13843 10102 ft 290 kts 192°
2026-05-07 19:40 52.73831 13.13154 10099 ft 289 kts 192°
2026-05-07 19:40 52.71833 13.12456 10102 ft 289 kts 192°
2026-05-07 19:40 52.69865 13.11771 10099 ft 288 kts 192°
2026-05-07 19:40 52.67936 13.11108 9960 ft 286 kts 192°
2026-05-07 19:41 52.65990 13.10441 9619 ft 285 kts 192°
2026-05-07 19:41 52.64040 13.09772 9199 ft 287 kts 192°
2026-05-07 19:41 52.62078 13.09093 8849 ft 286 kts 192°
2026-05-07 19:41 52.60131 13.08414 8527 ft 285 kts 192°
2026-05-07 19:42 52.58201 13.07734 8204 ft 284 kts 192°
2026-05-07 19:42 52.56275 13.07049 7888 ft 282 kts 192°
2026-05-07 19:42 52.54351 13.06362 7572 ft 281 kts 192°
2026-05-07 19:42 52.52442 13.05676 7261 ft 280 kts 192°
2026-05-07 19:43 52.50515 13.05278 6951 ft 278 kts 181°
2026-05-07 19:43 52.48591 13.05185 6685 ft 276 kts 180°
2026-05-07 19:43 52.46667 13.05125 6349 ft 276 kts 180°
2026-05-07 19:43 52.44751 13.05070 6056 ft 275 kts 180°
2026-05-07 19:44 52.42846 13.05015 5786 ft 273 kts 180°
2026-05-07 19:44 52.40952 13.04986 5501 ft 271 kts 174°
2026-05-07 19:44 52.39133 13.05499 5444 ft 260 kts 166°
2026-05-07 19:44 52.37402 13.06153 5372 ft 250 kts 165°
2026-05-07 19:45 52.35736 13.06797 5213 ft 241 kts 165°
2026-05-07 19:45 52.34139 13.07416 4997 ft 235 kts 165°
2026-05-07 19:45 52.32558 13.08029 4771 ft 231 kts 165°
2026-05-07 19:45 52.31010 13.08628 4646 ft 226 kts 165°
2026-05-07 19:46 52.29538 13.09416 4424 ft 222 kts 143°
2026-05-07 19:46 52.28680 13.11365 4270 ft 209 kts 99°
2026-05-07 19:46 52.28795 13.13638 4119 ft 201 kts 75°
2026-05-07 19:46 52.29132 13.15812 4009 ft 193 kts 74°
2026-05-07 19:47 52.29519 13.17850 3984 ft 186 kts 70°
2026-05-07 19:47 52.29958 13.19825 4008 ft 182 kts 69°
2026-05-07 19:47 52.30408 13.21746 3993 ft 180 kts 68°
2026-05-07 19:47 52.30858 13.23632 3926 ft 183 kts 67°
2026-05-07 19:48 52.31354 13.25571 3614 ft 183 kts 67°
2026-05-07 19:48 52.31823 13.27492 3247 ft 182 kts 68°
2026-05-07 19:48 52.32277 13.29411 2853 ft 177 kts 68°
2026-05-07 19:48 52.32706 13.31241 2487 ft 167 kts 68°
2026-05-07 19:49 52.33107 13.32953 2232 ft 154 kts 68°
2026-05-07 19:49 52.33470 13.34497 2017 ft 139 kts 68°
2026-05-07 19:49 52.33810 13.35943 1818 ft 135 kts 68°
2026-05-07 19:49 52.34148 13.37380 1637 ft 137 kts 68°
2026-05-07 19:50 52.34483 13.38841 1453 ft 137 kts 68°
2026-05-07 19:50 52.34823 13.40298 1258 ft 137 kts 68°
2026-05-07 19:50 52.35170 13.41757 1066 ft 139 kts 68°
2026-05-07 19:50 52.35520 13.43249 884 ft 143 kts 67°
2026-05-07 19:51 52.35889 13.44770 670 ft 145 kts 68°
2026-05-07 19:51 52.36246 13.46295 474 ft 145 kts 68°
2026-05-07 19:51 52.36610 13.47842 276 ft 146 kts 68°
2026-05-07 19:51 52.36972 13.49359 157 ft 136 kts 71°
2026-05-07 19:52 52.37235 13.50467 156 ft 64 kts 69°
2026-05-07 19:52 52.37308 13.50885 157 ft 28 kts 89°
2026-05-07 19:52 52.37292 13.51146 160 ft 13 kts 99°
2026-05-07 19:52 52.37282 13.51246 161 ft 9 kts 99°
2026-05-07 19:53 52.37267 13.51339 161 ft 8 kts 115°
2026-05-07 19:53 52.37225 13.51400 159 ft 7 kts 160°
2026-05-07 19:53 52.37203 13.51414 158 ft 2 kts 158°
2026-05-07 19:53 52.37195 13.51419 157 ft 2 kts 158°
2026-05-07 19:54 52.37194 13.51420 157 ft 0 kts 158°
2026-05-07 19:54 52.37191 13.51422 157 ft 2 kts 158°
2026-05-07 19:54 52.37172 13.51435 157 ft 4 kts 159°
2026-05-07 19:54 52.37149 13.51449 157 ft 4 kts 159°
2026-05-07 19:55 52.37125 13.51464 157 ft 4 kts 159°
2026-05-07 19:55 52.37075 13.51487 156 ft 12 kts 179°
2026-05-07 19:55 52.37023 13.51376 155 ft 14 kts 246°
2026-05-07 19:55 52.36988 13.51233 154 ft 13 kts 249°
2026-05-07 19:56 52.36955 13.51096 154 ft 13 kts 249°
2026-05-07 19:56 52.36924 13.50961 154 ft 12 kts 249°
2026-05-07 19:56 52.36893 13.50830 154 ft 12 kts 249°
2026-05-07 19:56 52.36862 13.50766 155 ft 6 kts 182°
2026-05-07 19:57 52.36823 13.50787 154 ft 4 kts 158°
2026-05-07 19:57 52.36802 13.50801 154 ft 1 kts 158°